Weather History for KCCY - September, 2013

Change the Weather History Date:

Saturday, September 14, 2013

  Actual Average (KMCW) Record (KMCW)
Temperature  
Mean Temperature 58 °F 62 °F  
Max Temperature 73 °F 74 °F 95 °F (1939)
Min Temperature 44 °F 49 °F 28 °F (1923)
Degree Days  
Heating Degree Days 6 5  
Month to date heating degree days 48  
Since 1 July heating degree days 84  
Cooling Degree Days 0 2  
Month to date cooling degree days 37  
Year to date cooling degree days 593  
Growing Degree Days 8 (Base 50)    
Moisture  
Dew Point 43 °F    
Average Humidity 57    
Maximum Humidity 87    
Minimum Humidity 33    
Precipitation  
Precipitation 0.01 in 0.10 in 1.70 in (1909)
Month to date precipitation 1.58  
Year to date precipitation 27.94  
Snow  
Snow 0.00 in 0.00 in 0.00 in (2002)
Month to date snowfall 0.0  
Since 1 July snowfall 0.0  
Since 1 September snowfall 0.0  
Snow Depth -    
Sea Level Pressure  
Sea Level Pressure 30.05 in    
Wind  
Wind Speed 9 mph (South)    
Max Wind Speed 17 mph    
Max Gust Speed 22 mph    
Visibility 10 miles    
Events Rain    
T = Trace of Precipitation, MM = Missing Value Source: NWS Daily Summary

Daily Weather History Graph

Daily Weather History Graph

Search for Another Location

Airport or City:

Trip Planner

Search our weather history database for the weather conditions in past years. The results will help you decide how hot, cold, wet, or windy it might be!

Date:

Astronomy

Sep. 14, 2013 Rise Set
Actual Time 6:49 AM CDT 7:21 PM CDT
Civil Twilight 6:20 AM CDT 7:50 PM CDT
Nautical Twilight 5:46 AM CDT 8:23 PM CDT
Astronomical Twilight 5:12 AM CDT 8:58 PM CDT
Moon 4:09 PM CDT (9/14) 1:15 AM CDT (9/14)
Length of Visible Light 13h 29m
Length of Day
12h 32m
Waxing Gibbous, 72% of the Moon is Illuminated
Sep 14
Waxing Gibbous
Sep 19
Full
Sep 26
Last Quarter
Oct 4
New
Oct 11
First Quarter

Hourly Weather History & Observations

Time (CDT) Temp. Windchill Dew Point Humidity Pressure Visibility Wind Dir Wind Speed Gust Speed Precip Events Conditions
12:15 AM 51.8 °F - 42.8 °F 71% 30.14 in 10.0 mi SE 6.9 mph - N/A   Clear
12:35 AM 51.8 °F - 41.0 °F 67% 30.14 in 10.0 mi SE 5.8 mph - N/A   Clear
12:55 AM 50.0 °F - 42.8 °F 76% 30.13 in 10.0 mi SE 5.8 mph - N/A   Clear
1:15 AM 50.0 °F - 41.0 °F 71% 30.14 in 10.0 mi SSE 4.6 mph - N/A   Clear
1:35 AM 50.0 °F - 41.0 °F 71% 30.13 in 10.0 mi SE 6.9 mph - N/A   Clear
1:55 AM 50.0 °F - 41.0 °F 71% 30.14 in 10.0 mi SE 4.6 mph - N/A   Clear
2:15 AM 48.2 °F - 41.0 °F 76% 30.13 in 10.0 mi SE 6.9 mph - N/A   Clear
2:35 AM 48.2 °F - 41.0 °F 76% 30.13 in 10.0 mi SE 6.9 mph - N/A   Clear
2:55 AM 48.2 °F - 41.0 °F 76% 30.13 in 10.0 mi SSE 5.8 mph - N/A   Clear
3:15 AM 48.2 °F - 41.0 °F 76% 30.13 in 10.0 mi SSE 5.8 mph - N/A   Clear
3:35 AM 48.2 °F - 41.0 °F 76% 30.12 in 10.0 mi SE 5.8 mph - N/A   Clear
3:55 AM 46.4 °F 42.9 °F 41.0 °F 81% 30.12 in 10.0 mi SE 6.9 mph - N/A   Clear
4:15 AM 46.4 °F 43.5 °F 41.0 °F 81% 30.12 in 10.0 mi SSE 5.8 mph - N/A   Clear
4:35 AM 46.4 °F 44.3 °F 41.0 °F 81% 30.13 in 10.0 mi SSE 4.6 mph - N/A   Clear
4:55 AM 46.4 °F 44.3 °F 41.0 °F 81% 30.13 in 10.0 mi SE 4.6 mph - N/A   Clear
5:15 AM 46.4 °F 43.5 °F 41.0 °F 81% 30.13 in 10.0 mi SE 5.8 mph - N/A   Clear
5:35 AM 46.4 °F 44.3 °F 41.0 °F 81% 30.13 in 10.0 mi SSE 4.6 mph - N/A   Clear
5:55 AM 46.4 °F 44.3 °F 41.0 °F 81% 30.14 in 10.0 mi SE 4.6 mph - N/A   Clear
6:15 AM 46.4 °F 43.5 °F 41.0 °F 81% 30.13 in 10.0 mi SE 5.8 mph - N/A   Clear
6:35 AM 44.6 °F 41.4 °F 41.0 °F 87% 30.13 in 10.0 mi SE 5.8 mph - N/A   Clear
6:55 AM 44.6 °F 40.7 °F 41.0 °F 87% 30.13 in 10.0 mi SE 6.9 mph - N/A   Clear
7:15 AM 44.6 °F 40.7 °F 41.0 °F 87% 30.14 in 10.0 mi SSE 6.9 mph - N/A   Clear
7:35 AM 46.4 °F 42.4 °F 41.0 °F 81% 30.14 in 10.0 mi SSE 8.1 mph - N/A   Clear
7:55 AM 48.2 °F - 42.8 °F 82% 30.14 in 10.0 mi SSE 8.1 mph - N/A   Partly Cloudy
8:15 AM 51.8 °F - 42.8 °F 71% 30.14 in 10.0 mi South 9.2 mph - N/A   Clear
8:35 AM 53.6 °F - 42.8 °F 67% 30.14 in 10.0 mi South 10.4 mph - N/A   Clear
8:55 AM 55.4 °F - 42.8 °F 63% 30.13 in 10.0 mi South 8.1 mph - N/A   Clear
9:15 AM 55.4 °F - 42.8 °F 63% 30.13 in 10.0 mi South 8.1 mph - N/A   Clear
9:35 AM 57.2 °F - 42.8 °F 59% 30.13 in 10.0 mi South 9.2 mph - N/A   Clear
9:55 AM 59.0 °F - 42.8 °F 55% 30.13 in 10.0 mi SSW 11.5 mph - N/A   Clear
10:15 AM 60.8 °F - 42.8 °F 52% 30.12 in 10.0 mi South 12.7 mph - N/A   Clear
10:35 AM 62.6 °F - 42.8 °F 48% 30.12 in 10.0 mi SSW 13.8 mph - N/A   Clear
10:55 AM 64.4 °F - 41.0 °F 42% 30.11 in 10.0 mi South 15.0 mph - N/A   Clear
11:15 AM 66.2 °F - 42.8 °F 43% 30.11 in 10.0 mi South 11.5 mph 18.4 mph N/A   Clear
11:35 AM 66.2 °F - 42.8 °F 43% 30.10 in 10.0 mi SSW 13.8 mph 21.9 mph N/A   Clear
11:55 AM 68.0 °F - 42.8 °F 40% 30.09 in 10.0 mi South 15.0 mph - N/A   Clear
12:15 PM 69.8 °F - 42.8 °F 38% 30.09 in 10.0 mi SSW 15.0 mph - N/A   Clear
12:35 PM 69.8 °F - 42.8 °F 38% 30.08 in 10.0 mi SSW 13.8 mph 19.6 mph N/A   Clear
12:55 PM 71.6 °F - 42.8 °F 35% 30.06 in 10.0 mi South 15.0 mph - N/A   Clear
1:15 PM 71.6 °F - 42.8 °F 35% 30.06 in 10.0 mi SSW 15.0 mph - N/A   Clear
1:35 PM 71.6 °F - 42.8 °F 35% 30.05 in 10.0 mi SSW 13.8 mph 20.7 mph N/A   Clear
1:55 PM 71.6 °F - 42.8 °F 35% 30.04 in 10.0 mi South 17.3 mph - N/A   Clear
2:15 PM 71.6 °F - 42.8 °F 35% 30.04 in 10.0 mi SSW 12.7 mph - N/A   Clear
2:35 PM 71.6 °F - 44.6 °F 38% 30.03 in 10.0 mi South 13.8 mph - N/A   Clear
2:55 PM 71.6 °F - 42.8 °F 35% 30.02 in 10.0 mi South 12.7 mph 20.7 mph N/A   Clear
3:15 PM 73.4 °F - 42.8 °F 33% 30.01 in 10.0 mi South 15.0 mph 20.7 mph N/A   Clear
3:35 PM 71.6 °F - 42.8 °F 35% 30.00 in 10.0 mi South 10.4 mph 18.4 mph N/A   Clear
3:55 PM 71.6 °F - 42.8 °F 35% 30.00 in 10.0 mi South 13.8 mph 20.7 mph N/A   Clear
4:15 PM 73.4 °F - 42.8 °F 33% 29.99 in 10.0 mi SSW 15.0 mph - N/A   Clear
4:35 PM 71.6 °F - 41.0 °F 33% 29.99 in 10.0 mi SSW 13.8 mph 21.9 mph N/A   Partly Cloudy
4:55 PM 71.6 °F - 42.8 °F 35% 29.98 in 10.0 mi South 11.5 mph - N/A   Mostly Cloudy
5:15 PM 71.6 °F - 42.8 °F 35% 29.98 in 10.0 mi South 11.5 mph - N/A   Mostly Cloudy
5:35 PM 71.6 °F - 42.8 °F 35% 29.98 in - South 11.5 mph - N/A   Partly Cloudy
5:55 PM 71.6 °F - 42.8 °F 35% 29.97 in 10.0 mi South 12.7 mph 19.6 mph N/A   Clear
6:15 PM 69.8 °F - 42.8 °F 38% 29.97 in 10.0 mi South 10.4 mph - N/A   Scattered Clouds
6:35 PM 69.8 °F - 44.6 °F 40% 29.96 in 10.0 mi South 8.1 mph - N/A   Mostly Cloudy
6:55 PM 68.0 °F - 44.6 °F 43% 29.95 in 10.0 mi SSE 8.1 mph - N/A   Mostly Cloudy
7:15 PM 68.0 °F - 44.6 °F 43% 29.95 in 10.0 mi SSE 8.1 mph - N/A   Scattered Clouds
7:35 PM 66.2 °F - 44.6 °F 46% 29.95 in 10.0 mi SSE 9.2 mph - N/A   Mostly Cloudy
7:55 PM 66.2 °F - 44.6 °F 46% 29.95 in 10.0 mi SSE 10.4 mph - N/A   Mostly Cloudy
8:15 PM 66.2 °F - 44.6 °F 46% 29.95 in 10.0 mi South 9.2 mph - N/A   Mostly Cloudy
8:35 PM 66.2 °F - 44.6 °F 46% 29.94 in 10.0 mi South 10.4 mph - N/A   Mostly Cloudy
8:55 PM 66.2 °F - 46.4 °F 49% 29.93 in 10.0 mi SSE 9.2 mph - N/A   Overcast
9:15 PM 64.4 °F - 46.4 °F 52% 29.92 in 10.0 mi South 10.4 mph - N/A   Overcast
9:35 PM 64.4 °F - 44.6 °F 49% 29.92 in 10.0 mi South 13.8 mph - N/A   Overcast
9:55 PM 64.4 °F - 44.6 °F 49% 29.92 in 10.0 mi South 16.1 mph - N/A   Overcast
10:15 PM 64.4 °F - 46.4 °F 52% 29.92 in 10.0 mi South 13.8 mph 20.7 mph N/A   Overcast
10:35 PM 60.8 °F - 50.0 °F 68% 29.91 in 5.0 mi South 13.8 mph - N/A Rain Light Rain
10:55 PM 60.8 °F - 50.0 °F 68% 29.91 in 10.0 mi South 12.7 mph - N/A   Overcast
11:15 PM 60.8 °F - 50.0 °F 68% 29.90 in 10.0 mi South 12.7 mph - N/A   Overcast
11:35 PM 60.8 °F - 48.2 °F 63% 29.90 in 10.0 mi South 12.7 mph - N/A   Overcast
11:55 PM 60.8 °F - 50.0 °F 68% 29.91 in 6.0 mi South 10.4 mph - 0.01 in   Haze